Location: Cedarbrook
(36.3103°N, 86.6422°W)
Time: 00:23:27
(UTC+00:00)

Cosmos 2219 - Visible Passes

Search period start: 28 February 2021 00:00
Search period end: 10 March 2021 00:00
Orbit: 834 x 859 km, 71.1° (Epoch: 27 February)

Date Brightness Start Highest point End Pass type
(mag) Time Alt. Az. Time Alt. Az. Time Alt. Az.
03 Mar 4.9 11:39:20 10° S 11:44:34 39° ESE 11:49:47 10° NE visible
04 Mar 4.9 11:25:53 10° S 11:31:04 38° ESE 11:36:16 10° NE visible
05 Mar 4.9 11:12:26 10° S 11:17:35 37° ESE 11:22:44 10° NE visible
06 Mar 4.9 10:58:58 10° S 11:04:05 36° ESE 11:09:12 10° NE visible
07 Mar 4.9 10:45:30 10° SSE 10:50:36 35° ESE 10:55:41 10° NE visible
08 Mar 4.9 10:32:03 10° SSE 10:37:06 34° ESE 10:42:09 10° NE visible
09 Mar 4.8 10:18:36 10° SSE 10:23:37 33° ESE 10:28:37 10° NE visible
